RADUGA 13 [-]

Last updated on Jan. 23, 2021, 7:21 a.m. UTC

1 14307U 83088A   21022.32928485 -.00000033  00000-0  00000-0 0  9997
2 14307  13.2332 328.5349 0018869  25.8940 160.6623  0.98172896 99580
UTC
Height (km)
Latitude
Longitude
Inclination
Orbital Period
UTC large
Height (km)
Speed (km/s)
/
Latitude / Longitude
Inclination (degrees)
Orbital Period (minutes)
Azimuth
Elevation
Range (km)
Doppler Factor
iOS Compass Heading
iOS Angle

Next 30 passes for location: Hong Kong

Rise time Rise Azimuth (degrees) Set time Set Azimuth (degrees) Duration Max altitude (degrees)

No matching passes for this satellites